Private Wetterstation Wechselburg
Wetterdaten: Mittwoch, 03.03.2021
Datum Zeit Temp. +2m Bodentemp. Temp.+5cm Temp. Wind Windchill X Diff Temp. Feuchte +2m Feuchte +5cm Luftdruck Regen Wind Richtung Richtung Sonnenschein Taupunkt Windchill Windben
03.03.2021 00:00 -0,1 C 6,6 C -0,7 C -0,6 C -1,6 C 0,0 C 87 % 92 % 1033,1 hPa 0,0 l/m 0,0 km/h (0 Bft) O-NO 67 0 min -2,0 C -1,6 C 0,0 km/h (0 Bft)
03.03.2021 00:05 -0,1 C 6,6 C -0,8 C -0,6 C -1,6 C 0,0 C 87 % 92 % 1033,1 hPa 0,0 l/m 0,0 km/h (0 Bft) O-NO 67 0 min -2,0 C -1,6 C 0,0 km/h (0 Bft)
03.03.2021 00:11 -0,1 C 6,6 C -0,8 C -0,6 C -1,6 C 0,0 C 87 % 92 % 1033,1 hPa 0,0 l/m 0,0 km/h (0 Bft) N 0 0 min -2,0 C -1,6 C 0,0 km/h (0 Bft)
03.03.2021 00:16 -0,5 C 6,6 C -1,0 C -1,0 C -2,0 C 0,0 C 87 % 92 % 1033,1 hPa 0,0 l/m 0,0 km/h (0 Bft) O-NO 67 0 min -2,4 C -2,0 C 0,0 km/h (0 Bft)
03.03.2021 00:21 -0,5 C 6,6 C -1,1 C -1,0 C -2,0 C 0,0 C 87 % 92 % 1033,1 hPa 0,0 l/m 0,0 km/h (0 Bft) O-NO 67 0 min -2,4 C -2,0 C 0,0 km/h (0 Bft)
03.03.2021 00:26 -0,5 C 6,6 C -1,1 C -1,0 C -2,1 C 0,0 C 87 % 92 % 1033,0 hPa 0,0 l/m 0,0 km/h (0 Bft) O-NO 67 0 min -2,4 C -2,1 C 0,0 km/h (0 Bft)
03.03.2021 00:29 -0,5 C 6,6 C -1,1 C -1,0 C -2,1 C 0,0 C 87 % 92 % 1033,0 hPa 0,0 l/m 0,0 km/h (0 Bft) O-NO 67 0 min -2,4 C -2,1 C 0,0 km/h (0 Bft)
03.03.2021 00:35 -0,5 C 6,6 C -1,2 C -1,1 C -2,2 C 0,0 C 87 % 92 % 1033,0 hPa 0,0 l/m 0,0 km/h (0 Bft) O-NO 67 0 min -2,4 C -2,2 C 0,0 km/h (0 Bft)
03.03.2021 00:40 -0,8 C 6,6 C -1,3 C -1,3 C -2,2 C 0,0 C 87 % 92 % 1033,0 hPa 0,0 l/m 0,0 km/h (0 Bft) O-NO 67 0 min -2,7 C -2,2 C 0,0 km/h (0 Bft)
03.03.2021 00:45 -0,8 C 6,5 C -1,3 C -1,3 C -2,2 C 0,0 C 87 % 93 % 1033,0 hPa 0,0 l/m 0,0 km/h (0 Bft) O-NO 67 0 min -2,7 C -2,2 C 0,0 km/h (0 Bft)
03.03.2021 00:50 -0,7 C 6,5 C -1,4 C -1,2 C -2,1 C 0,0 C 87 % 92 % 1033,0 hPa 0,0 l/m 0,0 km/h (0 Bft) O-NO 67 0 min -2,6 C -2,1 C 0,0 km/h (0 Bft)
03.03.2021 00:55 -0,9 C 6,5 C -1,4 C -1,2 C -1,7 C 0,0 C 87 % 92 % 1033,0 hPa 0,0 l/m 0,0 km/h (0 Bft) O-NO 67 0 min -2,8 C -1,7 C 0,0 km/h (0 Bft)
03.03.2021 01:00 -0,9 C 6,5 C -1,4 C -1,2 C -1,8 C 0,0 C 87 % 93 % 1033,0 hPa 0,0 l/m 0,0 km/h (0 Bft) O-NO 67 0 min -2,8 C -1,8 C 0,0 km/h (0 Bft)
03.03.2021 01:05 -0,9 C 6,5 C -1,4 C -1,3 C -2,0 C 0,0 C 87 % 93 % 1033,0 hPa 0,0 l/m 0,0 km/h (0 Bft) O-NO 67 0 min -2,8 C -2,0 C 0,0 km/h (0 Bft)
03.03.2021 01:10 -0,9 C 6,5 C -1,5 C -1,3 C -2,2 C 0,0 C 87 % 93 % 1033,1 hPa 0,0 l/m 0,0 km/h (0 Bft) O-NO 67 0 min -2,8 C -2,2 C 0,0 km/h (0 Bft)
03.03.2021 01:15 -1,1 C 6,5 C -1,6 C -1,6 C -2,5 C 0,0 C 87 % 93 % 1033,1 hPa 0,0 l/m 0,0 km/h (0 Bft) O-NO 67 0 min -3,0 C -2,5 C 0,0 km/h (0 Bft)
03.03.2021 01:20 -1,3 C 6,5 C -1,7 C -1,8 C -2,8 C 0,0 C 88 % 93 % 1033,1 hPa 0,0 l/m 0,0 km/h (0 Bft) O-NO 67 0 min -3,0 C -2,8 C 0,0 km/h (0 Bft)
03.03.2021 01:25 -1,3 C 6,5 C -1,7 C -1,8 C -2,8 C 0,0 C 87 % 93 % 1033,1 hPa 0,0 l/m 0,0 km/h (0 Bft) O-NO 67 0 min -3,2 C -2,8 C 0,0 km/h (0 Bft)
03.03.2021 01:30 -1,3 C 6,5 C -1,7 C -1,8 C -2,7 C 0,0 C 88 % 93 % 1033,1 hPa 0,0 l/m 0,0 km/h (0 Bft) O-NO 67 0 min -3,0 C -2,7 C 0,0 km/h (0 Bft)
03.03.2021 01:35 -1,3 C 6,4 C -1,8 C -1,7 C -2,6 C 0,0 C 88 % 93 % 1033,1 hPa 0,0 l/m 0,0 km/h (0 Bft) O-NO 67 0 min -3,0 C -2,6 C 0,0 km/h (0 Bft)
03.03.2021 01:40 -1,3 C 6,4 C -1,8 C -1,7 C -2,6 C 0,0 C 88 % 93 % 1033,1 hPa 0,0 l/m 0,0 km/h (0 Bft) O-NO 67 0 min -3,0 C -2,6 C 0,0 km/h (0 Bft)
03.03.2021 01:45 -1,3 C 6,4 C -1,8 C -1,7 C -2,6 C 0,0 C 88 % 93 % 1033,1 hPa 0,0 l/m 0,0 km/h (0 Bft) O-NO 67 0 min -3,0 C -2,6 C 0,0 km/h (0 Bft)
03.03.2021 01:50 -1,5 C 6,4 C -1,9 C -1,9 C -2,7 C 0,0 C 88 % 93 % 1033,1 hPa 0,0 l/m 0,0 km/h (0 Bft) O-NO 67 0 min -3,2 C -2,7 C 0,0 km/h (0 Bft)
03.03.2021 01:55 -1,5 C 6,4 C -2,0 C -1,9 C -2,8 C 0,0 C 88 % 93 % 1033,1 hPa 0,0 l/m 0,0 km/h (0 Bft) O-NO 67 0 min -3,2 C -2,8 C 0,0 km/h (0 Bft)
03.03.2021 02:00 -1,7 C 6,4 C -2,0 C -2,1 C -2,9 C 0,0 C 88 % 93 % 1033,1 hPa 0,0 l/m 0,0 km/h (0 Bft) O-NO 67 0 min -3,4 C -2,9 C 0,0 km/h (0 Bft)
03.03.2021 02:05 -1,7 C 6,4 C -2,0 C -2,1 C -2,9 C 0,0 C 88 % 93 % 1033,1 hPa 0,0 l/m 0,0 km/h (0 Bft) O-NO 67 0 min -3,4 C -2,9 C 0,0 km/h (0 Bft)
03.03.2021 02:11 -1,8 C 6,4 C -2,1 C -2,2 C -2,9 C 0,0 C 87 % 93 % 1032,8 hPa 0,0 l/m 0,0 km/h (0 Bft) N 0 0 min -3,7 C -2,9 C 0,0 km/h (0 Bft)
03.03.2021 02:27 -2,0 C 6,3 C -2,1 C -2,4 C -3,2 C 0,0 C 87 % 93 % 1032,5 hPa 0,0 l/m 0,0 km/h (0 Bft) O-NO 67 0 min -3,9 C -3,2 C 0,0 km/h (0 Bft)
03.03.2021 02:38 -2,1 C 6,3 C -2,2 C -2,5 C -3,3 C 0,0 C 87 % 93 % 1032,5 hPa 0,0 l/m 0,0 km/h (0 Bft) O-NO 67 0 min -4,0 C -3,3 C 0,0 km/h (0 Bft)
03.03.2021 02:40 -2,1 C 6,3 C -2,2 C -2,5 C -3,3 C 0,0 C 87 % 93 % 1032,5 hPa 0,0 l/m 0,0 km/h (0 Bft) O-NO 67 0 min -4,0 C -3,3 C 0,0 km/h (0 Bft)
03.03.2021 02:45 -2,1 C 6,3 C -2,3 C -2,5 C -3,4 C 0,0 C 87 % 93 % 1032,5 hPa 0,0 l/m 0,0 km/h (0 Bft) O-NO 67 0 min -4,0 C -3,4 C 0,0 km/h (0 Bft)
03.03.2021 02:50 -2,1 C 6,3 C -2,3 C -2,5 C -3,3 C 0,0 C 88 % 93 % 1032,4 hPa 0,0 l/m 0,0 km/h (0 Bft) O-NO 67 0 min -3,8 C -3,3 C 0,0 km/h (0 Bft)
03.03.2021 02:55 -2,1 C 6,3 C -2,4 C -2,5 C -3,3 C 0,0 C 88 % 93 % 1032,4 hPa 0,0 l/m 0,0 km/h (0 Bft) O-NO 67 0 min -3,8 C -3,3 C 0,0 km/h (0 Bft)
03.03.2021 03:00 -2,1 C 6,3 C -2,4 C -2,5 C -3,4 C 0,0 C 88 % 93 % 1032,4 hPa 0,0 l/m 0,0 km/h (0 Bft) O-NO 67 0 min -3,8 C -3,4 C 0,0 km/h (0 Bft)
03.03.2021 03:05 -2,3 C 6,3 C -2,4 C -2,6 C -3,3 C 0,0 C 88 % 93 % 1032,4 hPa 0,0 l/m 0,0 km/h (0 Bft) O-NO 67 0 min -4,0 C -3,3 C 0,0 km/h (0 Bft)
03.03.2021 03:10 -2,3 C 6,2 C -2,3 C -2,6 C -3,3 C 0,0 C 88 % 93 % 1032,3 hPa 0,0 l/m 0,0 km/h (0 Bft) O-NO 67 0 min -4,0 C -3,3 C 0,0 km/h (0 Bft)
03.03.2021 03:15 -2,3 C 6,2 C -2,4 C -2,6 C -3,3 C 0,0 C 88 % 93 % 1032,3 hPa 0,0 l/m 0,0 km/h (0 Bft) O-NO 67 0 min -4,0 C -3,3 C 0,0 km/h (0 Bft)
03.03.2021 03:20 -2,3 C 6,2 C -2,4 C -2,7 C -3,4 C 0,0 C 88 % 93 % 1032,3 hPa 0,0 l/m 0,0 km/h (0 Bft) O-NO 67 0 min -4,0 C -3,4 C 0,0 km/h (0 Bft)
03.03.2021 03:25 -2,3 C 6,2 C -2,4 C -2,7 C -3,4 C 0,0 C 88 % 93 % 1032,3 hPa 0,0 l/m 0,0 km/h (0 Bft) O-NO 67 0 min -4,0 C -3,4 C 0,0 km/h (0 Bft)
03.03.2021 03:30 -2,3 C 6,2 C -2,5 C -2,6 C -3,3 C 0,0 C 88 % 93 % 1032,3 hPa 0,0 l/m 0,0 km/h (0 Bft) O-NO 67 0 min -4,0 C -3,3 C 0,0 km/h (0 Bft)
03.03.2021 03:35 -2,3 C 6,2 C -2,5 C -2,6 C -3,2 C 0,0 C 88 % 93 % 1032,3 hPa 0,0 l/m 0,0 km/h (0 Bft) O-NO 67 0 min -4,0 C -3,2 C 0,0 km/h (0 Bft)
03.03.2021 03:40 -2,4 C 6,2 C -2,5 C -2,7 C -3,2 C 0,0 C 88 % 93 % 1032,3 hPa 0,0 l/m 0,0 km/h (0 Bft) O-NO 67 0 min -4,1 C -3,2 C 0,0 km/h (0 Bft)
03.03.2021 03:45 -2,4 C 6,2 C -2,5 C -2,7 C -3,3 C 0,0 C 88 % 93 % 1032,3 hPa 0,0 l/m 0,0 km/h (0 Bft) O-NO 67 0 min -4,1 C -3,3 C 0,0 km/h (0 Bft)
03.03.2021 03:50 -2,5 C 6,1 C -2,6 C -2,8 C -3,5 C 0,0 C 88 % 93 % 1031,9 hPa 0,0 l/m 0,0 km/h (0 Bft) O-NO 67 0 min -4,2 C -3,5 C 0,0 km/h (0 Bft)
03.03.2021 03:55 -2,5 C 6,1 C -2,6 C -2,8 C -3,5 C 0,0 C 88 % 93 % 1031,9 hPa 0,0 l/m 0,0 km/h (0 Bft) O-NO 67 0 min -4,2 C -3,5 C 0,0 km/h (0 Bft)
03.03.2021 04:00 -2,5 C 6,1 C -2,7 C -2,8 C -3,5 C 0,0 C 88 % 93 % 1031,9 hPa 0,0 l/m 0,0 km/h (0 Bft) O-NO 67 0 min -4,2 C -3,5 C 0,0 km/h (0 Bft)
03.03.2021 04:05 -2,5 C 6,1 C -2,7 C -2,9 C -3,7 C 0,0 C 88 % 93 % 1031,9 hPa 0,0 l/m 0,0 km/h (0 Bft) O-NO 67 0 min -4,2 C -3,7 C 0,0 km/h (0 Bft)
03.03.2021 04:11 -2,7 C 6,1 C -2,7 C -3,1 C -3,8 C 0,0 C 88 % 93 % 1031,5 hPa 0,0 l/m 0,0 km/h (0 Bft) N 0 0 min -4,4 C -3,8 C 0,0 km/h (0 Bft)
03.03.2021 04:27 -2,7 C 6,1 C -2,8 C -3,1 C -4,0 C 0,0 C 88 % 93 % 1031,3 hPa 0,0 l/m 0,0 km/h (0 Bft) O-NO 67 0 min -4,4 C -4,0 C 0,0 km/h (0 Bft)
03.03.2021 04:38 -2,9 C 6,1 C -2,7 C -3,2 C -3,8 C 0,0 C 88 % 93 % 1031,3 hPa 0,0 l/m 0,0 km/h (0 Bft) O-NO 67 0 min -4,6 C -3,8 C 0,0 km/h (0 Bft)
03.03.2021 04:40 -2,9 C 6,1 C -2,7 C -3,2 C -3,8 C 0,0 C 88 % 93 % 1031,3 hPa 0,0 l/m 0,0 km/h (0 Bft) O-NO 67 0 min -4,6 C -3,8 C 0,0 km/h (0 Bft)
03.03.2021 04:45 -2,9 C 6,0 C -2,7 C -3,1 C -3,6 C 0,0 C 88 % 93 % 1031,3 hPa 0,0 l/m 0,0 km/h (0 Bft) O-NO 67 0 min -4,6 C -3,6 C 0,0 km/h (0 Bft)
03.03.2021 04:50 -2,9 C 6,0 C -2,9 C -3,1 C -3,6 C 0,0 C 88 % 93 % 1031,3 hPa 0,0 l/m 0,0 km/h (0 Bft) O-NO 67 0 min -4,6 C -3,6 C 0,0 km/h (0 Bft)
03.03.2021 04:55 -2,9 C 6,0 C -2,9 C -3,1 C -3,5 C 0,0 C 88 % 93 % 1031,3 hPa 0,0 l/m 0,0 km/h (0 Bft) O-NO 67 0 min -4,6 C -3,5 C 0,0 km/h (0 Bft)
03.03.2021 05:00 -2,9 C 6,0 C -2,9 C -3,1 C -3,6 C 0,0 C 88 % 93 % 1031,3 hPa 0,0 l/m 0,0 km/h (0 Bft) O-NO 67 0 min -4,6 C -3,6 C 0,0 km/h (0 Bft)
03.03.2021 05:05 -2,9 C 6,0 C -2,9 C -3,1 C -3,5 C 0,0 C 88 % 93 % 1031,3 hPa 0,0 l/m 0,0 km/h (0 Bft) O-NO 67 0 min -4,6 C -3,5 C 0,0 km/h (0 Bft)
03.03.2021 05:10 -2,9 C 6,0 C -2,9 C -3,1 C -3,5 C 0,0 C 88 % 93 % 1031,4 hPa 0,0 l/m 0,0 km/h (0 Bft) O-NO 67 0 min -4,6 C -3,5 C 0,0 km/h (0 Bft)
03.03.2021 05:15 -2,9 C 6,0 C -2,9 C -3,1 C -3,6 C 0,0 C 88 % 93 % 1031,4 hPa 0,0 l/m 0,0 km/h (0 Bft) O-NO 67 0 min -4,6 C -3,6 C 0,0 km/h (0 Bft)
03.03.2021 05:20 -2,9 C 6,0 C -2,7 C -3,1 C -3,5 C 0,0 C 88 % 93 % 1031,4 hPa 0,0 l/m 0,0 km/h (0 Bft) O-NO 67 0 min -4,6 C -3,5 C 0,0 km/h (0 Bft)
03.03.2021 05:25 -2,9 C 6,0 C -2,8 C -3,1 C -3,5 C 0,0 C 88 % 93 % 1031,4 hPa 0,0 l/m 0,0 km/h (0 Bft) O-NO 67 0 min -4,6 C -3,5 C 0,0 km/h (0 Bft)
03.03.2021 05:30 -2,9 C 6,0 C -2,9 C -3,1 C -3,5 C 0,0 C 88 % 93 % 1031,6 hPa 0,0 l/m 0,0 km/h (0 Bft) O-NO 67 0 min -4,6 C -3,5 C 0,0 km/h (0 Bft)
03.03.2021 05:35 -2,9 C 5,9 C -2,8 C -3,0 C -3,3 C 0,0 C 88 % 93 % 1031,6 hPa 0,0 l/m 0,0 km/h (0 Bft) O 90 0 min -4,6 C -3,3 C 0,0 km/h (0 Bft)
03.03.2021 05:40 -2,8 C 5,9 C -2,7 C -2,9 C -3,2 C 0,0 C 88 % 93 % 1031,6 hPa 0,0 l/m 0,2 km/h (0 Bft) O 90 0 min -4,5 C -3,2 C 1,8 km/h (1 Bft)
03.03.2021 05:45 -2,7 C 5,9 C -2,6 C -2,8 C -3,1 C 0,0 C 88 % 93 % 1031,6 hPa 0,0 l/m 0,0 km/h (0 Bft) O 90 0 min -4,4 C -3,1 C 0,0 km/h (0 Bft)
03.03.2021 05:50 -2,7 C 5,9 C -2,7 C -2,9 C -3,3 C 0,0 C 88 % 93 % 1031,9 hPa 0,0 l/m 0,0 km/h (0 Bft) O 90 0 min -4,4 C -3,3 C 0,0 km/h (0 Bft)
03.03.2021 05:55 -2,9 C 5,9 C -2,9 C -3,1 C -3,5 C 0,0 C 88 % 93 % 1031,9 hPa 0,0 l/m 0,0 km/h (0 Bft) O 90 0 min -4,6 C -3,5 C 0,0 km/h (0 Bft)
03.03.2021 06:00 -2,9 C 5,9 C -2,9 C -3,2 C -3,7 C 0,0 C 88 % 93 % 1031,9 hPa 0,0 l/m 0,0 km/h (0 Bft) O 90 0 min -4,6 C -3,7 C 0,0 km/h (0 Bft)
03.03.2021 06:05 -2,9 C 5,9 C -2,9 C -3,3 C -4,0 C 0,0 C 88 % 93 % 1031,9 hPa 0,0 l/m 0,0 km/h (0 Bft) O 90 0 min -4,6 C -4,0 C 0,0 km/h (0 Bft)
03.03.2021 06:11 -3,1 C 5,9 C -3,0 C -3,4 C -4,1 C 0,0 C 88 % 93 % 1031,8 hPa 0,0 l/m 0,0 km/h (0 Bft) N 0 0 min -4,8 C -4,1 C 0,0 km/h (0 Bft)
03.03.2021 06:27 -3,4 C 5,8 C -3,0 C -3,7 C -4,4 C 0,0 C 88 % 93 % 1031,8 hPa 0,0 l/m 0,0 km/h (0 Bft) O 90 0 min -5,1 C -4,4 C 0,0 km/h (0 Bft)
03.03.2021 06:40 -3,3 C 5,8 C -3,1 C -3,6 C -4,3 C 0,0 C 88 % 93 % 1031,8 hPa 0,0 l/m 0,0 km/h (0 Bft) O 90 0 min -5,0 C -4,3 C 0,0 km/h (0 Bft)
03.03.2021 06:45 -3,3 C 5,8 C -3,1 C -3,7 C -4,4 C 0,0 C 88 % 93 % 1031,8 hPa 0,0 l/m 0,0 km/h (0 Bft) O 90 0 min -5,0 C -4,4 C 0,0 km/h (0 Bft)
03.03.2021 06:50 -3,5 C 5,8 C -3,2 C -3,8 C -4,5 C 0,0 C 88 % 93 % 1031,6 hPa 0,0 l/m 0,0 km/h (0 Bft) O 90 0 min -5,2 C -4,5 C 0,0 km/h (0 Bft)
03.03.2021 06:55 -3,5 C 5,8 C -3,1 C -3,8 C -4,3 C 0,0 C 88 % 93 % 1031,6 hPa 0,0 l/m 0,0 km/h (0 Bft) O 90 0 min -5,2 C -4,3 C 0,0 km/h (0 Bft)
03.03.2021 07:00 -3,5 C 5,6 C -3,2 C -3,7 C -4,0 C 0,0 C 88 % 93 % 1031,6 hPa 0,0 l/m 0,0 km/h (0 Bft) O 90 0 min -5,2 C -4,0 C 0,0 km/h (0 Bft)
03.03.2021 07:05 -3,5 C 5,6 C -3,1 C -3,6 C -3,9 C 0,0 C 88 % 93 % 1031,6 hPa 0,0 l/m 0,0 km/h (0 Bft) O 90 0 min -5,2 C -3,9 C 0,0 km/h (0 Bft)
03.03.2021 07:10 -3,5 C 5,6 C -3,1 C -3,7 C -4,0 C 0,0 C 88 % 93 % 1031,3 hPa 0,0 l/m 0,0 km/h (0 Bft) O 90 0 min -5,2 C -4,0 C 0,0 km/h (0 Bft)
03.03.2021 07:15 -3,5 C 5,6 C -3,1 C -3,7 C -4,0 C 0,0 C 88 % 93 % 1031,3 hPa 0,0 l/m 0,0 km/h (0 Bft) O 90 0 min -5,2 C -4,0 C 0,0 km/h (0 Bft)
03.03.2021 07:20 -3,5 C 5,6 C -3,0 C -3,5 C -3,5 C 0,0 C 88 % 93 % 1031,3 hPa 0,0 l/m 0,0 km/h (0 Bft) O 90 0 min -5,2 C -3,5 C 0,0 km/h (0 Bft)
03.03.2021 07:25 -3,5 C 5,6 C -3,0 C -2,8 C -2,8 C 0,7 C 88 % 93 % 1031,3 hPa 0,0 l/m 0,0 km/h (0 Bft) O 90 0 min -5,2 C -2,8 C 0,0 km/h (0 Bft)
03.03.2021 07:30 -3,4 C 5,6 C -2,9 C -2,2 C -2,2 C 1,2 C 88 % 93 % 1031,2 hPa 0,0 l/m 0,0 km/h (0 Bft) O 90 5 min -5,1 C -2,2 C 0,0 km/h (0 Bft)
03.03.2021 07:35 -3,3 C 5,6 C -2,9 C -1,5 C -1,5 C 1,8 C 88 % 93 % 1031,2 hPa 0,0 l/m 0,0 km/h (0 Bft) O 90 5 min -5,0 C -1,5 C 0,0 km/h (0 Bft)
03.03.2021 07:40 -3,3 C 5,6 C -2,8 C -0,8 C -0,8 C 2,5 C 88 % 93 % 1031,2 hPa 0,0 l/m 0,0 km/h (0 Bft) O 90 5 min -5,0 C -0,8 C 0,0 km/h (0 Bft)
03.03.2021 07:45 -3,3 C 5,6 C -2,7 C -0,4 C -0,4 C 2,9 C 88 % 93 % 1031,2 hPa 0,0 l/m 0,0 km/h (0 Bft) O 90 5 min -5,0 C -0,4 C 0,0 km/h (0 Bft)
03.03.2021 07:50 -3,3 C 5,6 C -2,5 C -0,2 C -0,2 C 3,1 C 88 % 93 % 1031,1 hPa 0,0 l/m 0,0 km/h (0 Bft) O 90 5 min -5,0 C -0,2 C 0,0 km/h (0 Bft)
03.03.2021 07:55 -3,3 C 5,6 C -2,5 C -0,2 C -0,2 C 3,1 C 88 % 93 % 1031,1 hPa 0,0 l/m 0,0 km/h (0 Bft) O 90 5 min -5,0 C -0,2 C 0,0 km/h (0 Bft)
03.03.2021 08:00 -3,3 C 5,5 C -2,4 C -0,3 C -0,3 C 3,0 C 88 % 93 % 1031,1 hPa 0,0 l/m 0,0 km/h (0 Bft) O 90 5 min -5,0 C -0,3 C 0,0 km/h (0 Bft)
03.03.2021 08:05 -3,2 C 5,5 C -2,3 C -0,4 C -0,4 C 2,8 C 88 % 93 % 1031,1 hPa 0,0 l/m 0,0 km/h (0 Bft) O 90 5 min -4,9 C -0,4 C 0,0 km/h (0 Bft)
03.03.2021 08:11 -3,1 C 5,5 C -2,0 C -0,5 C -0,5 C 2,6 C 88 % 93 % 1031,2 hPa 0,0 l/m 0,0 km/h (0 Bft) N 0 6 min -4,8 C -0,5 C 0,0 km/h (0 Bft)
03.03.2021 08:27 -2,1 C 5,5 C -1,3 C 0,4 C 0,4 C 2,5 C 88 % 93 % 1031,1 hPa 0,0 l/m 0,0 km/h (0 Bft) O 90 16 min -3,8 C 0,4 C 0,0 km/h (0 Bft)
03.03.2021 08:38 -2,2 C 5,5 C -0,6 C 1,0 C 1,0 C 3,2 C 89 % 93 % 1031,1 hPa 0,0 l/m 0,0 km/h (0 Bft) O 90 11 min -3,8 C 1,0 C 0,0 km/h (0 Bft)
03.03.2021 08:40 -2,2 C 5,5 C -0,6 C 1,0 C 1,0 C 3,2 C 89 % 93 % 1031,1 hPa 0,0 l/m 0,0 km/h (0 Bft) O 90 2 min -3,8 C 1,0 C 0,0 km/h (0 Bft)
03.03.2021 08:45 -2,1 C 5,5 C -0,3 C 1,2 C 1,2 C 3,3 C 88 % 93 % 1031,1 hPa 0,0 l/m 0,0 km/h (0 Bft) O 90 5 min -3,8 C 1,2 C 0,0 km/h (0 Bft)
03.03.2021 08:50 -1,9 C 5,5 C 0,1 C 1,2 C 1,2 C 3,1 C 88 % 93 % 1031,0 hPa 0,0 l/m 0,0 km/h (0 Bft) O 90 5 min -3,6 C 1,2 C 0,0 km/h (0 Bft)
03.03.2021 08:55 -1,9 C 5,5 C 0,3 C 1,1 C 1,1 C 3,0 C 88 % 93 % 1031,0 hPa 0,0 l/m 0,0 km/h (0 Bft) O 90 5 min -3,6 C 1,1 C 0,0 km/h (0 Bft)
03.03.2021 09:00 -1,7 C 5,5 C 0,5 C 1,7 C 1,7 C 3,4 C 89 % 93 % 1031,0 hPa 0,0 l/m 0,0 km/h (0 Bft) O 90 5 min -3,3 C 1,7 C 0,0 km/h (0 Bft)
03.03.2021 09:05 -1,3 C 5,4 C 0,9 C 1,8 C 1,8 C 3,1 C 88 % 93 % 1031,0 hPa 0,0 l/m 0,0 km/h (0 Bft) O 90 0 min -3,0 C 1,8 C 0,0 km/h (0 Bft)
03.03.2021 09:10 -0,7 C 5,4 C 1,6 C 2,3 C 2,3 C 3,0 C 88 % 93 % 1031,0 hPa 0,0 l/m 0,0 km/h (0 Bft) O 90 0 min -2,4 C 2,3 C 0,0 km/h (0 Bft)
03.03.2021 09:15 -0,5 C 5,3 C 2,2 C 2,9 C 2,9 C 3,4 C 88 % 93 % 1031,0 hPa 0,0 l/m 0,0 km/h (0 Bft) O 90 5 min -2,2 C 2,9 C 0,0 km/h (0 Bft)
03.03.2021 09:20 0,1 C 5,2 C 3,1 C 3,8 C 3,8 C 3,7 C 89 % 93 % 1031,0 hPa 0,0 l/m 0,2 km/h (0 Bft) O 90 5 min -1,5 C 3,8 C 0,0 km/h (0 Bft)
03.03.2021 09:25 0,3 C 5,2 C 4,1 C 4,3 C 4,3 C 4,0 C 89 % 93 % 1031,0 hPa 0,0 l/m 0,2 km/h (0 Bft) O 90 5 min -1,3 C 4,3 C 0,0 km/h (0 Bft)
03.03.2021 09:30 0,7 C 5,2 C 5,3 C 4,8 C 4,8 C 4,1 C 89 % 93 % 1031,2 hPa 0,0 l/m 0,3 km/h (0 Bft) O 90 5 min -0,9 C 4,8 C 2,6 km/h (1 Bft)
03.03.2021 09:35 0,9 C 5,2 C 6,1 C 5,5 C 5,5 C 4,6 C 89 % 92 % 1031,2 hPa 0,0 l/m 0,3 km/h (0 Bft) O 90 5 min -0,7 C 5,5 C 1,6 km/h (1 Bft)
03.03.2021 09:40 1,6 C 5,2 C 7,1 C 8,1 C 8,1 C 6,5 C 89 % 91 % 1031,2 hPa 0,0 l/m 0,5 km/h (0 Bft) O 90 5 min -0,0 C 8,1 C 0,0 km/h (0 Bft)
03.03.2021 09:45 1,9 C 5,1 C 6,7 C 8,2 C 8,2 C 6,3 C 89 % 90 % 1031,2 hPa 0,0 l/m 0,3 km/h (0 Bft) O 90 5 min 0,3 C 8,2 C 0,0 km/h (0 Bft)
03.03.2021 09:50 2,4 C 5,1 C 5,8 C 7,9 C 7,9 C 5,5 C 89 % 88 % 1031,1 hPa 0,0 l/m 0,3 km/h (0 Bft) O 90 5 min 0,8 C 7,9 C 0,0 km/h (0 Bft)
03.03.2021 09:55 2,8 C 5,1 C 5,6 C 8,2 C 8,2 C 5,4 C 89 % 89 % 1031,1 hPa 0,0 l/m 0,6 km/h (0 Bft) S 180 5 min 1,2 C 8,2 C 2,1 km/h (1 Bft)
03.03.2021 10:00 3,3 C 5,1 C 5,5 C 9,0 C 9,0 C 5,7 C 89 % 89 % 1031,1 hPa 0,0 l/m 0,6 km/h (0 Bft) S 180 5 min 1,7 C 9,0 C 4,3 km/h (1 Bft)
03.03.2021 10:05 3,6 C 5,1 C 5,4 C 10,4 C 10,4 C 6,8 C 89 % 89 % 1031,1 hPa 0,0 l/m 0,2 km/h (0 Bft) S 180 5 min 2,0 C 10,4 C 0,0 km/h (0 Bft)
03.03.2021 10:11 4,1 C 5,1 C 5,4 C 11,0 C 11,0 C 6,9 C 88 % 89 % 1030,9 hPa 0,0 l/m 0,0 km/h (0 Bft) N 0 6 min 2,3 C 11,0 C 0,0 km/h (0 Bft)
03.03.2021 10:27 6,3 C 5,1 C 6,1 C 9,7 C 9,7 C 3,4 C 88 % 88 % 1030,8 hPa 0,0 l/m 1,0 km/h (0 Bft) S 180 16 min 4,5 C 9,7 C 1,8 km/h (1 Bft)
03.03.2021 10:38 7,8 C 5,1 C 6,7 C 10,2 C 10,2 C 2,4 C 87 % 88 % 1030,8 hPa 0,0 l/m 0,8 km/h (0 Bft) S-SO 157 0 min 5,8 C 10,2 C 5,1 km/h (1 Bft)
03.03.2021 10:40 7,8 C 5,1 C 6,7 C 10,2 C 10,2 C 2,4 C 87 % 88 % 1030,8 hPa 0,0 l/m 0,8 km/h (0 Bft) S-SO 157 0 min 5,8 C 10,2 C 0,0 km/h (0 Bft)
03.03.2021 10:45 8,4 C 5,1 C 6,9 C 10,9 C 10,9 C 2,5 C 87 % 86 % 1030,8 hPa 0,0 l/m 0,3 km/h (0 Bft) SO 135 0 min 6,4 C 10,9 C 1,9 km/h (1 Bft)
03.03.2021 10:50 9,0 C 5,2 C 7,4 C 11,4 C 11,4 C 2,4 C 85 % 85 % 1031,1 hPa 0,0 l/m 0,5 km/h (0 Bft) S-SW 202 0 min 6,6 C 11,4 C 0,0 km/h (0 Bft)
03.03.2021 10:55 9,2 C 5,2 C 7,5 C 11,8 C 11,8 C 2,6 C 83 % 85 % 1031,1 hPa 0,0 l/m 0,3 km/h (0 Bft) SW 225 0 min 6,5 C 11,8 C 0,0 km/h (0 Bft)
03.03.2021 11:00 9,5 C 5,2 C 7,9 C 11,8 C 11,8 C 2,3 C 80 % 83 % 1031,1 hPa 0,0 l/m 0,5 km/h (0 Bft) SW 225 0 min 6,2 C 11,8 C 0,0 km/h (0 Bft)
03.03.2021 11:05 9,5 C 5,2 C 8,0 C 11,9 C 11,9 C 2,4 C 78 % 82 % 1031,1 hPa 0,0 l/m 0,8 km/h (0 Bft) S-SW 202 0 min 5,9 C 11,9 C 5,3 km/h (1 Bft)
03.03.2021 11:10 9,6 C 5,2 C 8,3 C 12,5 C 12,5 C 2,9 C 76 % 81 % 1030,6 hPa 0,0 l/m 1,1 km/h (1 Bft) W-SW 247 0 min 5,6 C 12,5 C 0,0 km/h (0 Bft)
03.03.2021 11:15 9,9 C 5,2 C 8,6 C 13,4 C 13,4 C 3,5 C 74 % 80 % 1030,6 hPa 0,0 l/m 1,3 km/h (1 Bft) W-SW 247 5 min 5,5 C 13,4 C 4,7 km/h (1 Bft)
03.03.2021 11:20 10,3 C 5,1 C 9,0 C 14,8 C 14,8 C 4,5 C 73 % 79 % 1030,6 hPa 0,0 l/m 0,8 km/h (0 Bft) S 180 5 min 5,7 C 14,8 C 2,6 km/h (1 Bft)
03.03.2021 11:25 10,5 C 5,1 C 9,3 C 15,4 C 15,4 C 4,9 C 72 % 78 % 1030,6 hPa 0,0 l/m 0,6 km/h (0 Bft) SO 135 5 min 5,7 C 15,4 C 0,0 km/h (0 Bft)
03.03.2021 11:30 10,9 C 5,2 C 9,6 C 14,9 C 14,9 C 4,0 C 71 % 76 % 1030,3 hPa 0,0 l/m 0,3 km/h (0 Bft) SO 135 5 min 5,9 C 14,9 C 0,0 km/h (0 Bft)
03.03.2021 11:35 11,0 C 5,2 C 9,8 C 14,6 C 14,6 C 3,6 C 70 % 75 % 1030,3 hPa 0,0 l/m 0,2 km/h (0 Bft) S 180 5 min 5,7 C 14,6 C 0,0 km/h (0 Bft)
03.03.2021 11:40 11,3 C 5,2 C 10,3 C 14,9 C 14,9 C 3,6 C 68 % 74 % 1030,3 hPa 0,0 l/m 1,3 km/h (1 Bft) SW 225 5 min 5,6 C 14,9 C 5,5 km/h (1 Bft)
03.03.2021 11:45 11,1 C 5,2 C 10,3 C 14,7 C 14,7 C 3,6 C 67 % 72 % 1030,3 hPa 0,0 l/m 1,8 km/h (1 Bft) SO 135 5 min 5,2 C 14,7 C 0,0 km/h (0 Bft)
03.03.2021 11:50 11,2 C 5,2 C 10,5 C 14,9 C 14,9 C 3,7 C 67 % 72 % 1030,4 hPa 0,0 l/m 0,8 km/h (0 Bft) S-SO 157 5 min 5,3 C 14,9 C 0,0 km/h (0 Bft)
03.03.2021 11:55 11,5 C 5,2 C 10,5 C 14,9 C 14,9 C 3,4 C 67 % 70 % 1030,4 hPa 0,0 l/m 0,2 km/h (0 Bft) S 180 5 min 5,6 C 14,9 C 0,0 km/h (0 Bft)
03.03.2021 12:00 11,4 C 5,3 C 10,4 C 14,4 C 14,4 C 3,0 C 65 % 70 % 1030,4 hPa 0,0 l/m 1,1 km/h (1 Bft) S-SO 157 0 min 5,1 C 14,4 C 6,4 km/h (2 Bft)
03.03.2021 12:05 11,5 C 5,3 C 10,5 C 14,9 C 14,9 C 3,4 C 64 % 70 % 1030,4 hPa 0,0 l/m 1,4 km/h (1 Bft) SO 135 5 min 4,9 C 14,9 C 3,2 km/h (1 Bft)
03.03.2021 12:11 11,5 C 5,3 C 10,5 C 14,9 C 14,9 C 3,4 C 64 % 70 % 1030,5 hPa 0,0 l/m 1,4 km/h (1 Bft) N 0 6 min 4,9 C 14,9 C 3,2 km/h (1 Bft)
03.03.2021 12:27 12,0 C 5,4 C 11,1 C 15,4 C 15,4 C 3,4 C 63 % 68 % 1030,0 hPa 0,0 l/m 1,1 km/h (1 Bft) SW 225 16 min 5,2 C 15,4 C 5,3 km/h (1 Bft)
03.03.2021 12:38 11,8 C 5,4 C 11,0 C 14,1 C 14,1 C 2,3 C 63 % 68 % 1030,0 hPa 0,0 l/m 1,8 km/h (1 Bft) S-SO 157 0 min 5,0 C 14,1 C 4,5 km/h (1 Bft)
03.03.2021 12:40 11,8 C 5,4 C 11,0 C 14,1 C 14,1 C 2,3 C 63 % 68 % 1030,0 hPa 0,0 l/m 1,8 km/h (1 Bft) S-SO 157 0 min 5,0 C 14,1 C 4,5 km/h (1 Bft)
03.03.2021 12:45 11,8 C 5,4 C 11,1 C 13,9 C 13,9 C 2,1 C 63 % 67 % 1030,0 hPa 0,0 l/m 2,1 km/h (1 Bft) S-SO 157 0 min 5,0 C 13,9 C 5,0 km/h (1 Bft)
03.03.2021 12:50 11,9 C 5,4 C 11,2 C 13,7 C 13,7 C 1,8 C 63 % 67 % 1029,9 hPa 0,0 l/m 2,3 km/h (1 Bft) SW 225 0 min 5,1 C 13,7 C 6,8 km/h (2 Bft)
03.03.2021 12:55 11,9 C 5,5 C 11,3 C 13,8 C 13,8 C 1,9 C 62 % 67 % 1029,9 hPa 0,0 l/m 1,9 km/h (1 Bft) S-SW 202 0 min 4,9 C 13,8 C 7,7 km/h (2 Bft)
03.03.2021 13:00 11,9 C 5,5 C 11,5 C 14,1 C 14,1 C 2,2 C 63 % 67 % 1029,9 hPa 0,0 l/m 2,4 km/h (1 Bft) S-SW 202 0 min 5,1 C 14,1 C 2,3 km/h (1 Bft)
03.03.2021 13:05 12,0 C 5,5 C 11,6 C 14,3 C 14,3 C 2,3 C 62 % 66 % 1029,9 hPa 0,0 l/m 2,7 km/h (1 Bft) SW 225 0 min 4,9 C 14,3 C 0,0 km/h (0 Bft)
03.03.2021 13:10 12,0 C 5,5 C 11,9 C 14,7 C 14,7 C 2,7 C 62 % 65 % 1029,6 hPa 0,0 l/m 1,6 km/h (1 Bft) O-NO 67 0 min 4,9 C 14,7 C 8,9 km/h (2 Bft)
03.03.2021 13:15 12,1 C 5,5 C 12,0 C 14,9 C 14,9 C 2,8 C 63 % 65 % 1029,6 hPa 0,0 l/m 0,8 km/h (0 Bft) SW 225 0 min 5,3 C 14,9 C 0,0 km/h (0 Bft)
03.03.2021 13:20 12,3 C 5,6 C 12,1 C 15,3 C 15,3 C 3,0 C 62 % 64 % 1029,6 hPa 0,0 l/m 0,3 km/h (0 Bft) W-NW 292 0 min 5,2 C 15,3 C 0,0 km/h (0 Bft)
03.03.2021 13:25 12,3 C 5,6 C 12,2 C 15,6 C 15,6 C 3,3 C 63 % 64 % 1029,6 hPa 0,0 l/m 0,3 km/h (0 Bft) W-SW 247 5 min 5,5 C 15,6 C 0,0 km/h (0 Bft)
03.03.2021 13:30 12,4 C 5,6 C 12,2 C 15,6 C 15,6 C 3,2 C 62 % 63 % 1029,7 hPa 0,0 l/m 0,8 km/h (0 Bft) W-SW 247 0 min 5,3 C 15,6 C 0,0 km/h (0 Bft)
03.03.2021 13:35 12,3 C 5,6 C 12,1 C 15,3 C 15,3 C 3,0 C 61 % 63 % 1029,7 hPa 0,0 l/m 1,8 km/h (1 Bft) O-SO 112 0 min 5,0 C 15,3 C 2,9 km/h (1 Bft)
03.03.2021 13:40 12,3 C 5,6 C 12,2 C 15,0 C 15,0 C 2,7 C 61 % 63 % 1029,7 hPa 0,0 l/m 1,9 km/h (1 Bft) N-NO 22 0 min 5,0 C 15,0 C 3,9 km/h (1 Bft)
03.03.2021 13:45 12,4 C 5,7 C 12,2 C 15,2 C 15,2 C 2,8 C 61 % 62 % 1029,7 hPa 0,0 l/m 1,6 km/h (1 Bft) O-SO 112 0 min 5,1 C 15,2 C 0,0 km/h (0 Bft)
03.03.2021 13:50 12,5 C 5,7 C 12,3 C 15,3 C 15,3 C 2,8 C 61 % 63 % 1029,0 hPa 0,0 l/m 2,4 km/h (1 Bft) S-SO 157 0 min 5,2 C 15,3 C 3,1 km/h (1 Bft)
03.03.2021 13:55 12,5 C 5,7 C 12,5 C 15,4 C 15,4 C 2,9 C 61 % 63 % 1029,0 hPa 0,0 l/m 1,9 km/h (1 Bft) S-SW 202 0 min 5,2 C 15,4 C 2,7 km/h (1 Bft)
03.03.2021 14:00 12,7 C 5,8 C 12,9 C 16,4 C 16,4 C 3,7 C 61 % 63 % 1029,0 hPa 0,0 l/m 2,4 km/h (1 Bft) S 180 5 min 5,4 C 16,4 C 8,2 km/h (2 Bft)
03.03.2021 14:05 12,8 C 5,8 C 13,1 C 17,0 C 17,0 C 4,2 C 61 % 62 % 1029,0 hPa 0,0 l/m 3,5 km/h (1 Bft) S-SW 202 5 min 5,5 C 17,0 C 2,9 km/h (1 Bft)
03.03.2021 14:11 13,0 C 5,8 C 13,2 C 17,5 C 17,5 C 4,5 C 60 % 62 % 1029,2 hPa 0,0 l/m 3,9 km/h (1 Bft) N 0 6 min 5,4 C 17,5 C 5,1 km/h (1 Bft)
03.03.2021 14:27 13,1 C 5,9 C 12,7 C 15,8 C 15,8 C 2,7 C 58 % 60 % 1029,2 hPa 0,0 l/m 4,5 km/h (1 Bft) S-SW 202 0 min 5,0 C 15,8 C 10,8 km/h (2 Bft)
03.03.2021 14:38 13,2 C 5,9 C 12,7 C 15,9 C 15,9 C 2,7 C 59 % 61 % 1029,2 hPa 0,0 l/m 2,1 km/h (1 Bft) NW 315 0 min 5,4 C 15,9 C 0,0 km/h (0 Bft)
03.03.2021 14:40 13,2 C 5,9 C 12,7 C 15,9 C 15,9 C 2,7 C 59 % 61 % 1029,2 hPa 0,0 l/m 2,1 km/h (1 Bft) NW 315 0 min 5,4 C 15,9 C 0,0 km/h (0 Bft)
03.03.2021 14:45 13,3 C 5,9 C 12,8 C 16,0 C 16,0 C 2,7 C 59 % 61 % 1029,2 hPa 0,0 l/m 1,9 km/h (1 Bft) SW 225 0 min 5,5 C 16,0 C 0,0 km/h (0 Bft)
03.03.2021 14:50 13,4 C 5,9 C 12,7 C 15,9 C 15,9 C 2,5 C 58 % 61 % 1028,9 hPa 0,0 l/m 1,6 km/h (1 Bft) W-SW 247 0 min 5,3 C 15,9 C 1,6 km/h (1 Bft)
03.03.2021 14:55 13,5 C 6,0 C 12,7 C 15,8 C 15,8 C 2,3 C 58 % 61 % 1028,9 hPa 0,0 l/m 1,3 km/h (1 Bft) S 180 0 min 5,4 C 15,8 C 0,0 km/h (0 Bft)
03.03.2021 15:00 13,5 C 6,0 C 12,5 C 15,5 C 15,5 C 2,0 C 58 % 60 % 1028,9 hPa 0,0 l/m 0,3 km/h (0 Bft) W-SW 247 0 min 5,4 C 15,5 C 0,0 km/h (0 Bft)
03.03.2021 15:05 13,4 C 6,0 C 12,5 C 15,2 C 15,2 C 1,8 C 58 % 61 % 1028,9 hPa 0,0 l/m 0,5 km/h (0 Bft) SW 225 0 min 5,3 C 15,2 C 4,3 km/h (1 Bft)
03.03.2021 15:10 13,3 C 6,0 C 12,3 C 14,6 C 14,6 C 1,3 C 58 % 62 % 1028,2 hPa 0,0 l/m 0,5 km/h (0 Bft) SW 225 0 min 5,2 C 14,6 C 2,3 km/h (1 Bft)
03.03.2021 15:15 13,2 C 6,0 C 12,2 C 14,5 C 14,5 C 1,3 C 59 % 63 % 1028,2 hPa 0,0 l/m 0,8 km/h (0 Bft) S-SW 202 0 min 5,4 C 14,5 C 0,0 km/h (0 Bft)
03.03.2021 15:20 13,3 C 6,0 C 12,2 C 14,3 C 14,3 C 1,0 C 59 % 63 % 1028,2 hPa 0,0 l/m 0,8 km/h (0 Bft) W-SW 247 0 min 5,5 C 14,3 C 0,0 km/h (0 Bft)
03.03.2021 15:25 13,2 C 6,0 C 12,1 C 14,3 C 14,3 C 1,1 C 59 % 64 % 1028,2 hPa 0,0 l/m 0,3 km/h (0 Bft) S 180 0 min 5,4 C 14,3 C 3,1 km/h (1 Bft)
03.03.2021 15:30 13,2 C 6,2 C 12,1 C 14,3 C 14,3 C 1,1 C 59 % 64 % 1027,9 hPa 0,0 l/m 0,2 km/h (0 Bft) S-SW 202 0 min 5,4 C 14,3 C 0,0 km/h (0 Bft)
03.03.2021 15:35 13,3 C 6,2 C 12,1 C 14,4 C 14,4 C 1,1 C 59 % 64 % 1027,9 hPa 0,0 l/m 0,2 km/h (0 Bft) W-SW 247 0 min 5,5 C 14,4 C 0,0 km/h (0 Bft)
03.03.2021 15:40 13,3 C 6,2 C 12,3 C 14,5 C 14,5 C 1,2 C 59 % 63 % 1027,9 hPa 0,0 l/m 0,0 km/h (0 Bft) O-SO 112 0 min 5,5 C 14,5 C 2,9 km/h (1 Bft)
03.03.2021 15:45 13,4 C 6,2 C 12,2 C 14,5 C 14,5 C 1,1 C 59 % 63 % 1027,9 hPa 0,0 l/m 0,0 km/h (0 Bft) S-SO 157 0 min 5,6 C 14,5 C 0,0 km/h (0 Bft)
03.03.2021 15:50 13,5 C 6,2 C 12,4 C 14,7 C 14,7 C 1,2 C 59 % 64 % 1027,9 hPa 0,0 l/m 0,2 km/h (0 Bft) SW 225 0 min 5,6 C 14,7 C 2,4 km/h (1 Bft)
03.03.2021 15:55 13,5 C 6,3 C 12,3 C 14,7 C 14,7 C 1,2 C 60 % 63 % 1027,9 hPa 0,0 l/m 0,0 km/h (0 Bft) N-NO 22 0 min 5,9 C 14,7 C 0,0 km/h (0 Bft)
03.03.2021 16:00 13,5 C 6,3 C 12,3 C 14,6 C 14,6 C 1,1 C 60 % 63 % 1027,9 hPa 0,0 l/m 0,0 km/h (0 Bft) O-NO 67 0 min 5,9 C 14,6 C 0,0 km/h (0 Bft)
03.03.2021 16:05 13,3 C 6,3 C 12,3 C 14,5 C 14,5 C 1,2 C 59 % 63 % 1027,9 hPa 0,0 l/m 0,0 km/h (0 Bft) O-NO 67 0 min 5,5 C 14,5 C 0,0 km/h (0 Bft)
03.03.2021 16:11 13,2 C 6,3 C 12,2 C 14,1 C 14,1 C 0,9 C 60 % 63 % 1027,6 hPa 0,0 l/m 0,0 km/h (0 Bft) N 0 0 min 5,6 C 14,1 C 0,0 km/h (0 Bft)
03.03.2021 16:27 13,4 C 6,4 C 12,1 C 14,3 C 14,3 C 0,9 C 60 % 64 % 1027,2 hPa 0,0 l/m 0,0 km/h (0 Bft) S 180 0 min 5,8 C 14,3 C 0,0 km/h (0 Bft)
03.03.2021 16:38 13,6 C 6,4 C 12,2 C 14,8 C 14,8 C 1,2 C 59 % 64 % 1027,2 hPa 0,0 l/m 0,2 km/h (0 Bft) S 180 0 min 5,7 C 14,8 C 3,1 km/h (1 Bft)
03.03.2021 16:40 13,6 C 6,4 C 12,2 C 14,8 C 14,8 C 1,2 C 59 % 64 % 1027,2 hPa 0,0 l/m 0,2 km/h (0 Bft) S 180 0 min 5,7 C 14,8 C 3,1 km/h (1 Bft)
03.03.2021 16:45 13,6 C 6,4 C 12,1 C 14,8 C 14,8 C 1,2 C 59 % 64 % 1027,2 hPa 0,0 l/m 0,0 km/h (0 Bft) SO 135 0 min 5,7 C 14,8 C 0,0 km/h (0 Bft)
03.03.2021 16:50 13,6 C 6,4 C 12,1 C 14,6 C 14,6 C 1,0 C 59 % 64 % 1027,0 hPa 0,0 l/m 0,2 km/h (0 Bft) S 180 0 min 5,7 C 14,6 C 2,6 km/h (1 Bft)
03.03.2021 16:55 13,6 C 6,4 C 11,9 C 14,4 C 14,4 C 0,8 C 58 % 64 % 1027,0 hPa 0,0 l/m 0,2 km/h (0 Bft) SO 135 0 min 5,5 C 14,4 C 0,0 km/h (0 Bft)
03.03.2021 17:00 13,6 C 6,5 C 11,7 C 14,1 C 14,1 C 0,5 C 59 % 64 % 1027,0 hPa 0,0 l/m 0,2 km/h (0 Bft) S-SO 157 0 min 5,7 C 14,1 C 0,0 km/h (0 Bft)
03.03.2021 17:05 13,4 C 6,5 C 11,7 C 13,8 C 13,8 C 0,4 C 59 % 65 % 1027,0 hPa 0,0 l/m 0,0 km/h (0 Bft) S-SO 157 0 min 5,6 C 13,8 C 0,0 km/h (0 Bft)
03.03.2021 17:10 13,3 C 6,5 C 11,5 C 13,4 C 13,4 C 0,1 C 59 % 65 % 1027,1 hPa 0,0 l/m 0,0 km/h (0 Bft) SO 135 0 min 5,5 C 13,4 C 1,6 km/h (1 Bft)
03.03.2021 17:15 13,3 C 6,5 C 11,4 C 13,2 C 13,1 C 0,0 C 59 % 64 % 1027,1 hPa 0,0 l/m 0,2 km/h (0 Bft) O-NO 67 0 min 5,5 C 13,1 C 0,0 km/h (0 Bft)
03.03.2021 17:20 13,1 C 6,5 C 11,1 C 13,0 C 12,7 C 0,0 C 59 % 65 % 1027,1 hPa 0,0 l/m 0,0 km/h (0 Bft) S 180 0 min 5,3 C 12,7 C 0,0 km/h (0 Bft)
03.03.2021 17:25 12,9 C 6,5 C 10,9 C 12,7 C 12,4 C 0,0 C 59 % 65 % 1027,1 hPa 0,0 l/m 0,0 km/h (0 Bft) O-SO 112 0 min 5,1 C 12,4 C 0,0 km/h (0 Bft)
03.03.2021 17:30 12,7 C 6,5 C 10,7 C 12,5 C 12,0 C 0,0 C 60 % 66 % 1026,6 hPa 0,0 l/m 0,0 km/h (0 Bft) S 180 0 min 5,1 C 12,0 C 0,0 km/h (0 Bft)
03.03.2021 17:35 12,6 C 6,5 C 10,7 C 12,4 C 11,9 C 0,0 C 60 % 66 % 1026,6 hPa 0,0 l/m 0,0 km/h (0 Bft) S 180 0 min 5,0 C 11,9 C 0,0 km/h (0 Bft)
03.03.2021 17:40 12,4 C 6,6 C 10,4 C 12,2 C 11,8 C 0,0 C 60 % 67 % 1026,6 hPa 0,0 l/m 0,0 km/h (0 Bft) S 180 0 min 4,9 C 11,8 C 0,0 km/h (0 Bft)
03.03.2021 17:45 12,4 C 6,6 C 10,3 C 12,2 C 11,7 C 0,0 C 60 % 67 % 1026,6 hPa 0,0 l/m 0,0 km/h (0 Bft) S-SO 157 0 min 4,9 C 11,7 C 0,0 km/h (0 Bft)
03.03.2021 17:50 12,2 C 6,7 C 9,7 C 11,9 C 11,4 C 0,0 C 60 % 68 % 1026,6 hPa 0,0 l/m 0,0 km/h (0 Bft) S-SO 157 0 min 4,7 C 11,4 C 0,0 km/h (0 Bft)
03.03.2021 17:55 11,9 C 6,7 C 9,4 C 11,7 C 11,2 C 0,0 C 61 % 69 % 1026,6 hPa 0,0 l/m 0,0 km/h (0 Bft) S-SO 157 0 min 4,6 C 11,2 C 0,0 km/h (0 Bft)
03.03.2021 18:00 11,7 C 6,7 C 9,1 C 11,3 C 10,5 C 0,0 C 61 % 71 % 1026,6 hPa 0,0 l/m 0,0 km/h (0 Bft) S-SO 157 0 min 4,4 C 10,5 C 0,0 km/h (0 Bft)
03.03.2021 18:05 11,3 C 6,7 C 8,9 C 10,9 C 10,1 C 0,0 C 62 % 71 % 1026,6 hPa 0,0 l/m 0,0 km/h (0 Bft) S-SO 157 0 min 4,3 C 10,1 C 0,0 km/h (0 Bft)
03.03.2021 18:11 11,1 C 6,7 C 8,3 C 10,5 C 9,4 C 0,0 C 63 % 72 % 1026,1 hPa 0,0 l/m 0,0 km/h (0 Bft) N 0 0 min 4,3 C 9,4 C 0,0 km/h (0 Bft)
03.03.2021 18:27 9,7 C 6,7 C 7,0 C 9,1 C 7,9 C 0,0 C 65 % 75 % 1026,3 hPa 0,0 l/m 0,0 km/h (0 Bft) S-SO 157 0 min 3,4 C 7,9 C 0,0 km/h (0 Bft)
03.03.2021 18:38 9,2 C 6,7 C 6,5 C 8,6 C 7,4 C 0,0 C 66 % 77 % 1026,3 hPa 0,0 l/m 0,0 km/h (0 Bft) S-SO 157 0 min 3,2 C 7,4 C 0,0 km/h (0 Bft)
03.03.2021 18:40 9,2 C 6,7 C 6,5 C 8,6 C 7,4 C 0,0 C 66 % 77 % 1026,3 hPa 0,0 l/m 0,0 km/h (0 Bft) S-SO 157 0 min 3,2 C 7,4 C 0,0 km/h (0 Bft)
03.03.2021 18:45 8,9 C 6,7 C 6,4 C 8,4 C 7,3 C 0,0 C 67 % 77 % 1026,3 hPa 0,0 l/m 0,0 km/h (0 Bft) S-SO 157 0 min 3,1 C 7,3 C 0,0 km/h (0 Bft)
03.03.2021 18:50 8,7 C 6,7 C 6,2 C 8,2 C 7,1 C 0,0 C 68 % 78 % 1026,4 hPa 0,0 l/m 0,0 km/h (0 Bft) S-SO 157 0 min 3,1 C 7,1 C 0,0 km/h (0 Bft)
03.03.2021 18:55 8,5 C 6,8 C 6,1 C 8,0 C 7,1 C 0,0 C 69 % 78 % 1026,4 hPa 0,0 l/m 0,0 km/h (0 Bft) S-SO 157 0 min 3,1 C 7,1 C 0,0 km/h (0 Bft)
03.03.2021 19:00 8,3 C 6,9 C 5,9 C 7,9 C 7,0 C 0,0 C 69 % 78 % 1026,4 hPa 0,0 l/m 0,0 km/h (0 Bft) S-SO 157 0 min 3,0 C 7,0 C 0,0 km/h (0 Bft)
03.03.2021 19:05 8,3 C 6,9 C 5,7 C 7,8 C 6,9 C 0,0 C 70 % 79 % 1026,4 hPa 0,0 l/m 0,0 km/h (0 Bft) S-SO 157 0 min 3,2 C 6,9 C 0,0 km/h (0 Bft)
03.03.2021 19:10 8,0 C 6,9 C 5,6 C 7,6 C 6,8 C 0,0 C 71 % 80 % 1026,1 hPa 0,0 l/m 0,0 km/h (0 Bft) S-SO 157 0 min 3,1 C 6,8 C 0,0 km/h (0 Bft)
03.03.2021 19:15 8,1 C 6,9 C 5,6 C 7,7 C 6,8 C 0,0 C 71 % 80 % 1026,1 hPa 0,0 l/m 0,0 km/h (0 Bft) S-SO 157 0 min 3,2 C 6,8 C 0,0 km/h (0 Bft)
03.03.2021 19:20 8,0 C 6,9 C 5,7 C 7,6 C 6,9 C 0,0 C 71 % 80 % 1026,1 hPa 0,0 l/m 0,0 km/h (0 Bft) S-SO 157 0 min 3,1 C 6,9 C 0,0 km/h (0 Bft)
03.03.2021 19:25 8,0 C 6,9 C 5,7 C 7,6 C 6,9 C 0,0 C 72 % 80 % 1026,1 hPa 0,0 l/m 0,0 km/h (0 Bft) S-SO 157 0 min 3,3 C 6,9 C 0,0 km/h (0 Bft)
03.03.2021 19:30 8,0 C 6,8 C 5,9 C 7,7 C 7,1 C 0,0 C 72 % 80 % 1026,1 hPa 0,0 l/m 0,0 km/h (0 Bft) S-SO 157 0 min 3,3 C 7,1 C 0,0 km/h (0 Bft)
03.03.2021 19:35 8,0 C 6,8 C 6,2 C 7,7 C 7,1 C 0,0 C 72 % 80 % 1026,1 hPa 0,0 l/m 0,0 km/h (0 Bft) W 270 0 min 3,3 C 7,1 C 0,0 km/h (0 Bft)
03.03.2021 19:40 8,0 C 6,8 C 6,3 C 7,8 C 7,4 C 0,0 C 72 % 79 % 1026,1 hPa 0,0 l/m 0,0 km/h (0 Bft) S 180 0 min 3,3 C 7,4 C 0,0 km/h (0 Bft)
03.03.2021 19:45 8,3 C 6,8 C 6,4 C 8,0 C 7,5 C 0,0 C 72 % 79 % 1026,1 hPa 0,0 l/m 0,0 km/h (0 Bft) S-SW 202 0 min 3,6 C 7,5 C 0,0 km/h (0 Bft)
03.03.2021 19:50 8,3 C 6,8 C 6,3 C 8,1 C 7,6 C 0,0 C 71 % 79 % 1026,2 hPa 0,0 l/m 0,0 km/h (0 Bft) S 180 0 min 3,4 C 7,6 C 0,0 km/h (0 Bft)
03.03.2021 19:55 8,3 C 6,8 C 6,2 C 8,0 C 7,4 C 0,0 C 71 % 78 % 1026,2 hPa 0,0 l/m 0,0 km/h (0 Bft) S 180 0 min 3,4 C 7,4 C 0,0 km/h (0 Bft)
03.03.2021 20:00 8,3 C 6,8 C 6,2 C 8,0 C 7,3 C 0,0 C 71 % 79 % 1026,2 hPa 0,0 l/m 0,2 km/h (0 Bft) S 180 0 min 3,4 C 7,3 C 0,0 km/h (0 Bft)
03.03.2021 20:05 8,3 C 6,8 C 6,4 C 8,0 C 7,5 C 0,0 C 71 % 79 % 1026,2 hPa 0,0 l/m 0,2 km/h (0 Bft) S 180 0 min 3,4 C 7,5 C 0,0 km/h (0 Bft)
03.03.2021 20:11 8,5 C 6,8 C 6,7 C 8,3 C 7,8 C 0,0 C 70 % 79 % 1026,4 hPa 0,0 l/m 0,3 km/h (0 Bft) N 0 0 min 3,3 C 7,8 C 0,0 km/h (0 Bft)
03.03.2021 20:27 8,7 C 6,8 C 7,0 C 8,4 C 7,9 C 0,0 C 69 % 77 % 1026,1 hPa 0,0 l/m 0,3 km/h (0 Bft) SO 135 0 min 3,3 C 7,9 C 0,0 km/h (0 Bft)
03.03.2021 20:40 8,7 C 6,8 C 6,9 C 8,4 C 7,7 C 0,0 C 69 % 77 % 1026,1 hPa 0,0 l/m 0,2 km/h (0 Bft) N-NW 337 0 min 3,3 C 7,7 C 1,9 km/h (1 Bft)
03.03.2021 20:45 8,7 C 6,8 C 6,9 C 8,4 C 7,7 C 0,0 C 69 % 76 % 1026,1 hPa 0,0 l/m 0,2 km/h (0 Bft) S 180 0 min 3,3 C 7,7 C 0,0 km/h (0 Bft)
03.03.2021 20:50 8,5 C 6,8 C 6,8 C 8,2 C 7,6 C 0,0 C 69 % 76 % 1026,4 hPa 0,0 l/m 0,2 km/h (0 Bft) S 180 0 min 3,1 C 7,6 C 0,0 km/h (0 Bft)
03.03.2021 20:55 8,5 C 6,8 C 6,7 C 8,2 C 7,5 C 0,0 C 69 % 77 % 1026,4 hPa 0,0 l/m 0,0 km/h (0 Bft) S 180 0 min 3,1 C 7,5 C 0,0 km/h (0 Bft)
03.03.2021 21:00 8,4 C 6,8 C 6,7 C 8,1 C 7,4 C 0,0 C 69 % 77 % 1026,4 hPa 0,0 l/m 0,0 km/h (0 Bft) W-NW 292 0 min 3,0 C 7,4 C 0,0 km/h (0 Bft)
03.03.2021 21:05 8,4 C 6,8 C 6,6 C 8,1 C 7,4 C 0,0 C 70 % 76 % 1026,4 hPa 0,0 l/m 0,0 km/h (0 Bft) O-SO 112 0 min 3,3 C 7,4 C 0,0 km/h (0 Bft)
03.03.2021 21:10 8,2 C 6,8 C 6,4 C 7,8 C 7,1 C 0,0 C 70 % 77 % 1025,9 hPa 0,0 l/m 0,0 km/h (0 Bft) S-SW 202 0 min 3,1 C 7,1 C 0,0 km/h (0 Bft)
03.03.2021 21:15 8,1 C 6,8 C 6,3 C 7,8 C 7,1 C 0,0 C 69 % 77 % 1025,9 hPa 0,0 l/m 0,0 km/h (0 Bft) O-SO 112 0 min 2,8 C 7,1 C 0,0 km/h (0 Bft)
03.03.2021 21:20 8,0 C 6,9 C 5,9 C 7,6 C 6,9 C 0,0 C 70 % 77 % 1025,9 hPa 0,0 l/m 0,0 km/h (0 Bft) S-SO 157 0 min 2,9 C 6,9 C 0,0 km/h (0 Bft)
03.03.2021 21:25 7,9 C 6,9 C 5,7 C 7,5 C 6,8 C 0,0 C 70 % 77 % 1025,9 hPa 0,0 l/m 0,0 km/h (0 Bft) S 180 0 min 2,8 C 6,8 C 0,0 km/h (0 Bft)
03.03.2021 21:30 7,6 C 6,9 C 5,4 C 7,2 C 6,5 C 0,0 C 71 % 78 % 1026,1 hPa 0,0 l/m 0,0 km/h (0 Bft) S-SW 202 0 min 2,7 C 6,5 C 0,0 km/h (0 Bft)
03.03.2021 21:35 7,5 C 6,9 C 5,2 C 7,1 C 6,4 C 0,0 C 71 % 79 % 1026,1 hPa 0,0 l/m 0,0 km/h (0 Bft) S-SW 202 0 min 2,6 C 6,4 C 0,0 km/h (0 Bft)
03.03.2021 21:40 7,3 C 6,9 C 5,0 C 6,9 C 6,1 C 0,0 C 71 % 79 % 1026,1 hPa 0,0 l/m 0,0 km/h (0 Bft) S 180 0 min 2,4 C 6,1 C 0,0 km/h (0 Bft)
03.03.2021 21:45 7,2 C 6,9 C 4,8 C 6,8 C 6,1 C 0,0 C 72 % 80 % 1026,1 hPa 0,0 l/m 0,0 km/h (0 Bft) S 180 0 min 2,5 C 6,1 C 0,0 km/h (0 Bft)
03.03.2021 21:50 7,0 C 6,9 C 4,7 C 6,7 C 6,0 C 0,0 C 72 % 80 % 1025,5 hPa 0,0 l/m 0,0 km/h (0 Bft) S 180 0 min 2,3 C 6,0 C 0,0 km/h (0 Bft)
03.03.2021 21:55 6,8 C 6,9 C 4,5 C 6,5 C 5,9 C 0,0 C 73 % 80 % 1025,5 hPa 0,0 l/m 0,0 km/h (0 Bft) S 180 0 min 2,3 C 5,9 C 0,0 km/h (0 Bft)
03.03.2021 22:00 6,8 C 6,9 C 4,6 C 6,5 C 5,9 C 0,0 C 73 % 81 % 1025,5 hPa 0,0 l/m 0,0 km/h (0 Bft) NO 45 0 min 2,3 C 5,9 C 0,0 km/h (0 Bft)
03.03.2021 22:05 6,7 C 6,9 C 4,6 C 6,4 C 5,9 C 0,0 C 74 % 82 % 1025,5 hPa 0,0 l/m 0,0 km/h (0 Bft) NO 45 0 min 2,4 C 5,9 C 0,0 km/h (0 Bft)
03.03.2021 22:11 6,7 C 6,9 C 4,6 C 6,4 C 5,9 C 0,0 C 74 % 82 % 1025,5 hPa 0,0 l/m 0,0 km/h (0 Bft) N 0 0 min 2,4 C 5,9 C 0,0 km/h (0 Bft)
03.03.2021 22:26 6,5 C 6,9 C 4,5 C 6,3 C 5,9 C 0,0 C 75 % 83 % 1025,5 hPa 0,0 l/m 0,0 km/h (0 Bft) O-SO 112 0 min 2,4 C 5,9 C 0,0 km/h (0 Bft)
03.03.2021 22:38 6,5 C 6,9 C 4,4 C 6,3 C 5,9 C 0,0 C 76 % 84 % 1025,4 hPa 0,0 l/m 0,0 km/h (0 Bft) NO 45 0 min 2,6 C 5,9 C 0,0 km/h (0 Bft)
03.03.2021 22:40 6,5 C 6,9 C 4,4 C 6,3 C 5,9 C 0,0 C 76 % 84 % 1025,4 hPa 0,0 l/m 0,0 km/h (0 Bft) NO 45 0 min 2,6 C 5,9 C 0,0 km/h (0 Bft)
03.03.2021 22:45 6,4 C 6,9 C 4,5 C 6,3 C 6,0 C 0,0 C 77 % 84 % 1025,4 hPa 0,0 l/m 0,0 km/h (0 Bft) NO 45 0 min 2,7 C 6,0 C 0,0 km/h (0 Bft)
03.03.2021 22:50 6,4 C 6,9 C 4,5 C 6,3 C 6,0 C 0,0 C 77 % 84 % 1025,0 hPa 0,0 l/m 0,0 km/h (0 Bft) NO 45 0 min 2,7 C 6,0 C 0,0 km/h (0 Bft)
03.03.2021 22:55 6,5 C 6,9 C 4,6 C 6,3 C 5,9 C 0,0 C 77 % 84 % 1025,0 hPa 0,0 l/m 0,0 km/h (0 Bft) NO 45 0 min 2,8 C 5,9 C 0,0 km/h (0 Bft)
03.03.2021 23:00 6,4 C 6,9 C 4,4 C 6,2 C 5,8 C 0,0 C 77 % 84 % 1025,0 hPa 0,0 l/m 0,0 km/h (0 Bft) NO 45 0 min 2,7 C 5,8 C 0,0 km/h (0 Bft)
03.03.2021 23:05 6,4 C 6,9 C 4,3 C 6,2 C 5,7 C 0,0 C 77 % 84 % 1025,0 hPa 0,0 l/m 0,0 km/h (0 Bft) NO 45 0 min 2,7 C 5,7 C 0,0 km/h (0 Bft)
03.03.2021 23:10 6,3 C 6,9 C 4,3 C 6,1 C 5,6 C 0,0 C 77 % 84 % 1025,1 hPa 0,0 l/m 0,0 km/h (0 Bft) NO 45 0 min 2,6 C 5,6 C 0,0 km/h (0 Bft)
03.03.2021 23:15 6,5 C 6,9 C 4,1 C 6,2 C 5,7 C 0,0 C 77 % 84 % 1025,1 hPa 0,0 l/m 0,0 km/h (0 Bft) NO 45 0 min 2,8 C 5,7 C 0,0 km/h (0 Bft)
03.03.2021 23:20 6,3 C 6,9 C 4,1 C 6,0 C 5,5 C 0,0 C 77 % 85 % 1025,1 hPa 0,0 l/m 0,0 km/h (0 Bft) NO 45 0 min 2,6 C 5,5 C 0,0 km/h (0 Bft)
03.03.2021 23:25 6,3 C 6,9 C 4,0 C 6,0 C 5,4 C 0,0 C 77 % 85 % 1025,1 hPa 0,0 l/m 0,0 km/h (0 Bft) NO 45 0 min 2,6 C 5,4 C 0,0 km/h (0 Bft)
03.03.2021 23:30 6,1 C 6,9 C 3,9 C 5,8 C 5,3 C 0,0 C 78 % 85 % 1024,8 hPa 0,0 l/m 0,0 km/h (0 Bft) NO 45 0 min 2,6 C 5,3 C 0,0 km/h (0 Bft)
03.03.2021 23:35 6,1 C 6,9 C 3,9 C 5,8 C 5,2 C 0,0 C 78 % 85 % 1024,8 hPa 0,0 l/m 0,0 km/h (0 Bft) NO 45 0 min 2,6 C 5,2 C 0,0 km/h (0 Bft)
03.03.2021 23:40 6,0 C 6,9 C 4,0 C 5,8 C 5,3 C 0,0 C 78 % 86 % 1024,8 hPa 0,0 l/m 0,0 km/h (0 Bft) NO 45 0 min 2,5 C 5,3 C 0,0 km/h (0 Bft)
03.03.2021 23:45 6,1 C 6,9 C 4,0 C 5,8 C 5,3 C 0,0 C 78 % 86 % 1024,8 hPa 0,0 l/m 0,0 km/h (0 Bft) NO 45 0 min 2,6 C 5,3 C 0,0 km/h (0 Bft)
03.03.2021 23:50 6,0 C 6,9 C 4,1 C 5,8 C 5,4 C 0,0 C 78 % 86 % 1025,1 hPa 0,0 l/m 0,0 km/h (0 Bft) NO 45 0 min 2,5 C 5,4 C 0,0 km/h (0 Bft)
03.03.2021 23:55 6,1 C 6,9 C 4,1 C 5,9 C 5,4 C 0,0 C 78 % 86 % 1025,1 hPa 0,0 l/m 0,0 km/h (0 Bft) NO 45 0 min 2,6 C 5,4 C 0,0 km/h (0 Bft)
_ Min-Zeit 06:50 09:45 06:50 06:50 06:50 00:00 14:27 14:27 23:30 - 00:00 - - - 06:50 06:50 00:00
Minimum _ -3,5 C 5,1 C -3,2 C -3,8 C -4,5 C 0,0 C 58 % 60 % 1024,8 hPa - 0,0 km/h (0 Bft) - - - -5,2 C -4,5 C 0,0 km/h (0 Bft)
_ Max-Zeit 16:38 19:00 14:11 14:11 14:11 10:11 08:38 00:45 00:00 00:00 14:27 - - 08:27 10:50 14:11 14:27
Maximum _ 13,6 C 6,9 C 13,2 C 17,5 C 17,5 C 6,9 C 89 % 93 % 1033,1 hPa 0,0 l/m 4,5 km/h
S-SW (1 Bft)
- - 16 min 6,6 C 17,5 C 10,8 km/h
S-SW (2 Bft)
Durchschnitt _ 5,0 C 6,1 C 4,4 C 6,0 C 5,6 C 1,1 C 76 % 82 % 1029,5 hPa #0,0 l/m 0,3 km/h (0 Bft) S-SO - #4:25 h 0,9 C 5,6 C 0,8 km/h (0 Bft)
2021 www.wetterstation-wechselburg.de